[[{"header":{"parameterUnit":"m.s-1","parameterCategory":2,"la1":30.2991,"la2":30.254,"lo1":-89.0895,"lo2":-89.0444,"dy":0.0017,"dx":0.0017,"nx":28,"ny":28,"refTime":"2024-05-21T03:00:00:Z","depth":"0","parameterNumber":2,"parameterNumberName":"U-component_of_CURRENTS"},"data":[0,0,0,0,0,0,0,0,0,0,0,0,0,0,0,0,0,0,0,0,0,0,0,0,0,0,0,0,0,0,0,0,0,0,0,0,0,0,0,0,0,0,0,0,0,0,0,0,0,0,0,0,0,0,0,0,0,0,0.2736,0.2737,0,0.2775,0.2775,0.2776,0.2783,0.2783,0.2783,0.2783,0.279,0.2791,0.2791,0,0,0,0,0,0,0,0,0,0,0,0,0,0.265,0.2652,0.2736,0.2737,0.2737,0.2775,0.2775,0.2776,0.2783,0.2783,0.2783,0.2783,0.279,0.279,0.2791,0,0,0,0,0,0,0,0,0,0,0,0,0,0.2687,0.2652,0.2736,0.2747,0.2748,0.2775,0.2775,0.2776,0.2783,0.2783,0.2783,0.2783,0.279,0.279,0.2791,0.28,0,0,0.2793,0.2793,0,0,0,0,0,0,0,0,0.2685,0.269,0.2744,0.2746,0.2748,0.2775,0.2748,0.2783,0.2783,0.2769,0.2783,0.2782,0.2783,0.2784,0.2791,0.2801,0.2801,0.2793,0.2793,0.2793,0.2794,0,0,0,0,0,0,0,0.2682,0.2688,0.275,0.2745,0.2747,0.2743,0.2748,0.2755,0.2776,0.277,0.2771,0.2777,0.2784,0.279,0.2791,0.2801,0.2793,0.2793,0.2794,0.2794,0.2865,0.2866,0,0,0,0,0,0,0.2682,0.2686,0.2749,0.2752,0.2716,0.2745,0.2751,0.2766,0.2776,0.2778,0.2777,0.2777,0.279,0.279,0.2791,0.285,0.2793,0.2794,0.2794,0.2863,0.2865,0.2867,0,0,0,0,0,0,0.268,0.2687,0.2748,0.272,0.2728,0.2747,0.2764,0.2767,0.2779,0.2783,0.2784,0.2788,0.2789,0.2791,0.2814,0.2848,0.2794,0.2795,0.2861,0.2864,0.2866,0.2937,0,0,0,0,0,0,0.2677,0.2687,0.2699,0.272,0.2729,0.2779,0.2764,0.2768,0.2784,0.2784,0.2792,0.2792,0.2789,0.2814,0.2815,0.2848,0.2795,0.2859,0.2862,0.2865,0.2933,0.2941,0.2949,0,0,0,0,0,0.2674,0.2691,0.2699,0.2707,0.2745,0.278,0.2785,0.2796,0.2785,0.2803,0.2807,0.2792,0.2833,0.2816,0.2817,0.2851,0.2858,0.2862,0.2865,0.2929,0.294,0.2949,0,0,0,0,0,0,0.2655,0.2695,0.2703,0.2731,0.2761,0.2782,0.2797,0.28,0.2818,0.2815,0.281,0.2811,0.2846,0.2838,0.2818,0.288,0.2844,0.2848,0.2892,0.2902,0.291,0.2915,0.2796,0,0,0,0,0,0.2658,0.2684,0.272,0.2741,0.2759,0.2778,0.2792,0.2802,0.2819,0.2826,0.2831,0.284,0.2861,0.2872,0.2884,0.2915,0.2938,0.2938,0.2947,0.2953,0.2959,0.3015,0.3029,0.2878,0.2878,0.2878,0,0,0.2652,0.268,0.2691,0.2739,0.276,0.2794,0.2786,0.2815,0.2842,0.2824,0.2857,0.2867,0.2875,0.2916,0.2931,0.2913,0.3017,0.2958,0.2964,0.2965,0.302,0.3035,0.3048,0.2881,0.288,0.288,0,0,0.266,0.2684,0.2713,0.2746,0.2788,0.2805,0.2816,0.2849,0.2865,0.2901,0.2899,0.2929,0.2952,0.2974,0.2985,0.3044,0.3056,0.3049,0.3097,0.3152,0.3165,0.3177,0.3263,0.3282,0.3055,0.3055,0.3055,0,0.2652,0.2695,0.2725,0.2767,0.2791,0.2813,0.2847,0.2874,0.2908,0.2927,0.2921,0.2977,0.2983,0.304,0.3067,0.3063,0.3107,0.3059,0.3164,0.3175,0.3186,0.3271,0.3291,0.3059,0.3058,0.3058,0.3058,0,0.2686,0.2724,0.2744,0.2804,0.2836,0.2867,0.2912,0.2946,0.2962,0.2983,0.3039,0.3059,0.3091,0.3108,0.3108,0.3189,0.3204,0.3167,0.314,0.3206,0.3291,0.3311,0.3064,0.3063,0.3062,0.3061,0,0,0.2658,0.2749,0.2756,0.279,0.2856,0.2884,0.2942,0.2998,0.3044,0.3074,0.3143,0.3174,0.318,0.3194,0.3204,0.3259,0.3386,0.3254,0.3255,0.3343,0.3548,0.3532,0.3552,0.3372,0.3375,0.3377,0.3592,0,0.2674,0.2748,0.279,0.2851,0.2892,0.2939,0.2992,0.3045,0.3097,0.3175,0.3203,0.3269,0.3214,0.326,0.3296,0.3373,0.3434,0.3333,0.3468,0.3473,0.3452,0.3571,0.3446,0.3623,0.361,0.3614,0.3616,0,0.2693,0.2742,0.2803,0.2886,0.2907,0.2945,0.3037,0.3095,0.3202,0.3248,0.3305,0.3346,0.3438,0.3388,0.3518,0.3461,0.3507,0.3554,0.3562,0.3531,0.3491,0.3547,0.3658,0.3565,0.3645,0.3643,0.3641,0,0.2659,0.2749,0.2792,0.2821,0.2918,0.2953,0.3007,0.3107,0.3167,0.3316,0.339,0.347,0.3549,0.3606,0.3677,0.3623,0.3839,0.3768,0.3796,0.3797,0.3705,0.3693,0.3736,0.3859,0.3858,0.3858,0.3857,0,0.2658,0.2693,0.2779,0.2805,0.2854,0.2939,0.3013,0.3089,0.3224,0.331,0.3418,0.3512,0.3608,0.3727,0.3758,0.3857,0.3895,0.3843,0.3857,0.373,0.3718,0.3641,0.3593,0.3866,0.3864,0.3862,0.3861,0,0.2611,0.2671,0.2722,0.2815,0.2837,0.2876,0.299,0.3066,0.3201,0.3339,0.3399,0.3584,0.3755,0.3855,0.4005,0.3972,0.3968,0.408,0.3947,0.3939,0.3835,0.3796,0.3724,0.361,0.4159,0.416,0.416,0,0.2592,0.2616,0.2696,0.2724,0.2761,0.2831,0.2888,0.3025,0.3112,0.336,0.3429,0.3665,0.3789,0.4029,0.4082,0.4194,0.4029,0.4107,0.3951,0.3852,0.382,0.3633,0.3528,0.3887,0.3886,0.3884,0.3883,0,0.2555,0.2582,0.2628,0.2682,0.2734,0.2779,0.2875,0.2927,0.3115,0.3241,0.3428,0.3567,0.3839,0.3918,0.409,0.4113,0.3912,0.4083,0.4006,0.3648,0.3421,0.331,0.375,0.3873,0.3874,0.3874,0.3875,0.3875,0.2527,0.2541,0.2612,0.2642,0.2694,0.2726,0.2735,0.2859,0.2966,0.3141,0.3337,0.3503,0.3717,0.3948,0.3951,0.3909,0.3858,0.3796,0.378,0.3617,0.3417,0.3856,0.3959,0.396,0.3962,0.3963,0.3964,0,0.2505,0.2532,0.2573,0.2606,0.2612,0.2664,0.2725,0.2728,0.2802,0.3008,0.3163,0.3399,0.3509,0.3636,0.3727,0.3629,0.3407,0.3537,0.3236,0.3162,0.3599,0.3494,0.3467,0.3467,0.3467,0.3467,0.3468,0.3468,0.2513,0.2538,0.2545,0.2522,0.2529,0.25,0.2503,0.2527,0.2622,0.2759,0.2895,0.3083,0.3368,0.3546,0.349,0.3403,0.3124,0.3007,0.2977,0.3293,0.3313,0.3332,0.3221,0.3138,0.3138,0.2378,0.2372,0.2368]},{"header":{"parameterUnit":"m.s-1","parameterCategory":2,"la1":30.2991,"la2":30.254,"lo1":-89.0895,"lo2":-89.0444,"dy":0.0017,"dx":0.0017,"nx":28,"ny":28,"refTime":"2024-05-21T03:00:00:Z","depth":"0","parameterNumber":3,"parameterNumberName":"V-component_of_CURRENTS"},"data":[0,0,0,0,0,0,0,0,0,0,0,0,0,0,0,0,0,0,0,0,0,0,0,0,0,0,0,0,0,0,0,0,0,0,0,0,0,0,0,0,0,0,0,0,0,0,0,0,0,0,0,0,0,0,0,0,0,0,0.0109,0.0108,0,0.0049,0.0048,0.0048,0.0,-0.0,-0.0,-0.0001,-0.0111,-0.0113,-0.0116,0,0,0,0,0,0,0,0,0,0,0,0,0,0.015,0.0149,0.0109,0.0108,0.0107,0.0049,0.0048,0.0048,0.0,-0.0,-0.0001,-0.0001,-0.011,-0.0113,-0.0116,0,0,0,0,0,0,0,0,0,0,0,0,0,0.0114,0.0149,0.0109,0.0078,0.0074,0.005,0.0048,0.0047,0.0,-0.0,-0.0001,-0.0001,-0.0109,-0.0113,-0.0116,-0.0129,0,0,-0.0128,-0.013,0,0,0,0,0,0,0,0,0.0116,0.0113,0.0083,0.008,0.0076,0.0032,0.0023,-0.0014,0.0001,0.0027,-0.0001,-0.0002,-0.0066,-0.0074,-0.0084,-0.0134,-0.0139,-0.0129,-0.0131,-0.0133,-0.0134,0,0,0,0,0,0,0,0.0119,0.0115,0.0084,0.0082,0.0078,0.0056,0.005,0.0015,-0.0017,0.0025,0.0022,0.0017,-0.0069,-0.0081,-0.0087,-0.014,-0.0128,-0.0132,-0.0134,-0.0136,-0.0216,-0.0216,0,0,0,0,0,0,0.0131,0.0117,0.0086,0.0082,0.0096,0.0056,0.005,0.0046,-0.0016,-0.0025,0.0017,0.0015,-0.0074,-0.0083,-0.0092,-0.0115,-0.0132,-0.0136,-0.0138,-0.0216,-0.0216,-0.0216,0,0,0,0,0,0,0.0132,0.0129,0.0088,0.0099,0.0093,0.0056,0.0052,0.0045,0.0033,-0.0021,-0.0032,0.0013,-0.0074,-0.0086,-0.0119,-0.012,-0.0138,-0.0141,-0.0216,-0.0216,-0.0216,-0.0159,0,0,0,0,0,0,0.0133,0.0129,0.0133,0.01,0.0093,0.008,0.0053,0.0045,0.0032,0.0028,-0.0029,-0.0039,-0.0076,-0.0113,-0.0123,-0.0125,-0.0144,-0.0216,-0.0216,-0.0216,-0.0161,-0.0157,-0.0153,0,0,0,0,0,0.0135,0.0147,0.0134,0.013,0.0099,0.0081,0.0075,0.0046,0.0032,0.0032,-0.0007,-0.0038,-0.0118,-0.0116,-0.0127,-0.0131,-0.0217,-0.0216,-0.0216,-0.0163,-0.0158,-0.0153,0,0,0,0,0,0,0.0168,0.0142,0.0128,0.0131,0.0109,0.0073,0.0073,0.0051,0.0021,0.0018,-0.0035,-0.0049,-0.0077,-0.011,-0.0106,-0.0153,-0.0173,-0.0174,-0.0128,-0.0124,-0.012,-0.0092,-0.0148,0,0,0,0,0,0.0178,0.0177,0.0148,0.015,0.0144,0.0109,0.0099,0.0079,0.0048,0.0034,-0.0004,-0.0047,-0.0084,-0.0107,-0.0141,-0.0168,-0.0183,-0.0178,-0.0174,-0.017,-0.0155,-0.0183,-0.018,-0.0214,-0.0214,-0.0214,0,0,0.0189,0.0177,0.0175,0.0156,0.0139,0.0137,0.0102,0.0092,0.0087,0.0027,0.0011,-0.0032,-0.0086,-0.0114,-0.013,-0.0143,-0.0167,-0.017,-0.0166,-0.0153,-0.0183,-0.0179,-0.0176,-0.0214,-0.0214,-0.0214,0,0,0.0218,0.0205,0.0215,0.0202,0.0182,0.0162,0.0162,0.0129,0.0113,0.0091,0.0046,0.0005,-0.0046,-0.0089,-0.0117,-0.0111,-0.0141,-0.0124,-0.0087,-0.0115,-0.0112,-0.011,-0.0114,-0.0113,-0.0126,-0.0126,-0.0126,0,0.0234,0.0241,0.0216,0.0223,0.0219,0.0178,0.0189,0.0167,0.0126,0.0121,0.0096,0.0023,-0.0034,-0.0069,-0.0074,-0.0103,-0.011,-0.0101,-0.0109,-0.0107,-0.0106,-0.011,-0.011,-0.0123,-0.0124,-0.0124,-0.0124,0,0.0269,0.0272,0.028,0.0274,0.0269,0.027,0.0241,0.0235,0.021,0.0185,0.0154,0.008,0.0039,0.0005,-0.0038,-0.0059,-0.0063,-0.0096,-0.0117,-0.0098,-0.0105,-0.0105,-0.0119,-0.012,-0.0121,-0.0122,0,0,0.0305,0.0304,0.0305,0.0318,0.0296,0.0302,0.03,0.0291,0.0313,0.0249,0.027,0.0166,0.0132,0.0098,0.0035,-0.0005,-0.0017,-0.0041,-0.0044,-0.0037,-0.0052,-0.0055,-0.0055,-0.0048,-0.0048,-0.0048,-0.0056,0,0.0337,0.0368,0.0354,0.0384,0.04,0.0373,0.0388,0.0375,0.0358,0.0371,0.0284,0.0279,0.0165,0.0163,0.0095,0.0028,-0.0016,-0.001,-0.0078,-0.008,-0.0078,-0.0055,-0.0073,-0.0081,-0.0056,-0.0057,-0.0057,0,0.0377,0.0391,0.0431,0.0458,0.0465,0.0484,0.0517,0.0526,0.052,0.0513,0.0472,0.0422,0.0354,0.0269,0.0134,0.0148,0.0052,-0.0016,-0.0018,-0.0038,-0.0082,-0.0099,-0.0082,-0.0282,-0.0057,-0.0057,-0.0057,0,0.0427,0.0448,0.0488,0.0492,0.0515,0.0544,0.0565,0.0575,0.0631,0.0625,0.0683,0.0557,0.056,0.0399,0.0235,0.0195,0.0113,0.0037,-0.0059,-0.0059,-0.0096,-0.0099,-0.0273,-0.0056,-0.0056,-0.0056,-0.0056,0,0.047,0.0501,0.0524,0.0547,0.0622,0.0618,0.0717,0.0717,0.0785,0.0896,0.0774,0.0842,0.0598,0.0517,0.0314,0.0149,0.0166,-0.0035,-0.0061,-0.0075,-0.0077,-0.027,-0.0373,-0.0056,-0.0056,-0.0056,-0.0056,0,0.0523,0.0529,0.0588,0.0629,0.0652,0.0718,0.0842,0.0941,0.097,0.1123,0.1146,0.1087,0.0974,0.0729,0.0505,0.0298,0.0,0.0041,0.0055,0.003,-0.0272,-0.037,-0.0531,-0.0614,-0.0072,-0.0072,-0.0072,0,0.0554,0.0587,0.066,0.073,0.0759,0.0862,0.097,0.103,0.1161,0.129,0.1396,0.1334,0.1318,0.0979,0.0588,0.0249,0.0033,0.0017,-0.0091,-0.0275,-0.0404,-0.0476,-0.054,-0.0114,-0.0114,-0.0115,-0.0115,0,0.0625,0.0655,0.0715,0.0859,0.0979,0.111,0.1264,0.1389,0.1512,0.1627,0.1774,0.1771,0.146,0.1103,0.0632,0.0366,-0.0122,0.0001,-0.0208,-0.0457,-0.0529,-0.0625,-0.0106,-0.0118,-0.0117,-0.0117,-0.0117,-0.0117,0.0705,0.0773,0.0884,0.1019,0.1166,0.1363,0.1487,0.1664,0.1862,0.2053,0.2047,0.2059,0.1554,0.0894,0.0538,-0.0143,-0.014,-0.0374,-0.0474,-0.0527,-0.0626,-0.0094,-0.0128,-0.0128,-0.0128,-0.0128,-0.0128,0,0.0827,0.0914,0.1047,0.1226,0.1406,0.1452,0.1702,0.1839,0.206,0.2206,0.2303,0.2041,0.1435,0.0798,-0.0095,-0.0542,-0.0718,-0.0794,-0.0934,-0.0976,-0.0524,-0.0547,-0.0652,-0.0652,-0.0652,-0.0652,-0.0652,-0.0651,0.0915,0.1066,0.1125,0.1416,0.1539,0.1776,0.1911,0.2092,0.222,0.2352,0.2323,0.2282,0.1776,0.0274,-0.0775,-0.1024,-0.1303,-0.137,-0.1496,-0.1237,-0.1207,-0.1178,-0.1227,-0.1473,-0.1474,-0.1917,-0.1921,-0.1925]}],[{"header":{"parameterUnit":"m.s-1","parameterCategory":2,"la1":30.2991,"la2":30.254,"lo1":-89.0895,"lo2":-89.0444,"dy":0.0017,"dx":0.0017,"nx":28,"ny":28,"refTime":"2024-05-21T03:00:00:Z","depth":"2","parameterNumber":2,"parameterNumberName":"U-component_of_CURRENTS"},"data":[0,0,0,0,0,0,0,0,0,0,0,0,0,0,0,0,0,0,0,0,0,0,0,0,0,0,0,0,0,0,0,0,0,0,0,0,0,0,0,0,0,0,0,0,0,0,0,0,0,0,0,0,0,0,0,0,0,0,0.2422,0.2422,0,0.2459,0.2459,0.2459,0.2476,0.2476,0.2477,0.2477,0.2501,0.2501,0.2502,0,0,0,0,0,0,0,0,0,0,0,0,0,0.2343,0.2344,0.2422,0.2423,0.2423,0.2459,0.2459,0.2459,0.2476,0.2476,0.2477,0.2477,0.2501,0.2501,0.2502,0,0,0,0,0,0,0,0,0,0,0,0,0,0.2376,0.2345,0.2422,0.2437,0.2439,0.2459,0.2459,0.2459,0.2476,0.2476,0.2477,0.2477,0.25,0.2501,0.2502,0.2502,0,0,0.2504,0.2505,0,0,0,0,0,0,0,0,0.2375,0.2379,0.2434,0.2436,0.2439,0.2465,0.244,0.2474,0.2476,0.246,0.2477,0.2477,0.2489,0.249,0.2494,0.2503,0.2504,0.2504,0.2505,0.2505,0.2505,0,0,0,0,0,0,0,0.2372,0.2378,0.2434,0.2435,0.2438,0.2435,0.244,0.2446,0.2471,0.2462,0.2463,0.2471,0.249,0.2494,0.2495,0.2505,0.2504,0.2505,0.2505,0.2506,0.2584,0.2585,0,0,0,0,0,0,0.2373,0.2376,0.2433,0.2436,0.2409,0.2436,0.2442,0.2455,0.2471,0.2475,0.247,0.2471,0.2492,0.2494,0.2496,0.2559,0.2505,0.2506,0.2506,0.2582,0.2584,0.2586,0,0,0,0,0,0,0.2371,0.2378,0.2432,0.2408,0.2414,0.2438,0.2452,0.2455,0.2474,0.2478,0.2481,0.2487,0.2492,0.2495,0.2519,0.2558,0.2506,0.2507,0.258,0.2583,0.2585,0.2646,0,0,0,0,0,0,0.2369,0.2377,0.2392,0.2408,0.2416,0.2464,0.2452,0.2456,0.2478,0.248,0.2494,0.2495,0.2493,0.2518,0.252,0.2558,0.2507,0.2578,0.2581,0.2584,0.2642,0.265,0.2658,0,0,0,0,0,0.2366,0.2386,0.2393,0.24,0.2435,0.2465,0.2469,0.2484,0.2479,0.2499,0.2503,0.2496,0.2539,0.252,0.2522,0.2561,0.2577,0.258,0.2584,0.2639,0.2649,0.2657,0,0,0,0,0,0,0.2357,0.2391,0.2398,0.2427,0.2454,0.2469,0.2487,0.2492,0.2511,0.2513,0.2508,0.2511,0.2548,0.2545,0.2524,0.2593,0.256,0.2564,0.2601,0.2611,0.2618,0.2637,0.2508,0,0,0,0,0,0.2363,0.2389,0.2417,0.2441,0.2456,0.2473,0.2487,0.25,0.2515,0.2524,0.2534,0.2547,0.2562,0.2578,0.2589,0.2623,0.2638,0.2653,0.2661,0.2667,0.2685,0.2723,0.2735,0.2598,0.2598,0.2598,0,0,0.2365,0.2387,0.2402,0.2442,0.246,0.2491,0.2482,0.2514,0.2541,0.2523,0.2563,0.257,0.2575,0.2616,0.2634,0.2621,0.272,0.2672,0.2677,0.2692,0.2728,0.2741,0.2753,0.26,0.26,0.2599,0,0,0.2379,0.2404,0.2431,0.2458,0.2496,0.2512,0.2525,0.2556,0.2573,0.261,0.2605,0.2639,0.2661,0.2682,0.2691,0.2748,0.2753,0.2754,0.2816,0.2853,0.2864,0.2875,0.2933,0.2948,0.2765,0.2765,0.2765,0,0.2379,0.2418,0.2443,0.2476,0.2499,0.2524,0.2555,0.2581,0.2617,0.2642,0.2634,0.2689,0.2697,0.2747,0.2777,0.2768,0.2794,0.2778,0.2863,0.2873,0.2883,0.294,0.2956,0.2768,0.2768,0.2768,0.2767,0,0.2412,0.2448,0.2467,0.2518,0.2547,0.2581,0.2618,0.2658,0.268,0.2708,0.2765,0.2776,0.2815,0.2826,0.2823,0.29,0.29,0.2861,0.2838,0.29,0.2957,0.2972,0.2773,0.2772,0.2771,0.277,0,0,0.2397,0.2475,0.2483,0.2515,0.2572,0.2601,0.2655,0.2716,0.2767,0.2803,0.2866,0.2903,0.2919,0.2931,0.2932,0.2975,0.3076,0.2962,0.2962,0.3019,0.3183,0.3126,0.3137,0.305,0.3052,0.3054,0.3203,0,0.2415,0.2481,0.2514,0.2578,0.2615,0.2659,0.2711,0.277,0.2822,0.2896,0.2923,0.2986,0.2954,0.2992,0.3024,0.3068,0.3116,0.3041,0.3115,0.3118,0.3058,0.3152,0.2919,0.3026,0.3218,0.322,0.3222,0,0.2429,0.2479,0.2537,0.2621,0.2642,0.2687,0.2782,0.2839,0.2941,0.298,0.304,0.3071,0.3157,0.3109,0.3209,0.3164,0.3188,0.3208,0.3213,0.3149,0.3089,0.2991,0.3046,0.3247,0.3245,0.3243,0.3242,0,0.2402,0.249,0.2538,0.2564,0.2663,0.2707,0.2774,0.2873,0.2934,0.3057,0.3118,0.319,0.3255,0.3286,0.3331,0.3289,0.3435,0.3372,0.334,0.3337,0.3149,0.3124,0.3439,0.3439,0.3439,0.3438,0.3438,0,0.2394,0.2438,0.2538,0.2569,0.2636,0.2719,0.2803,0.2882,0.3006,0.3082,0.3169,0.3237,0.3305,0.3382,0.339,0.3429,0.348,0.3386,0.3378,0.3166,0.3142,0.3326,0.3311,0.3444,0.3442,0.3441,0.344,0,0.2349,0.2407,0.2477,0.2593,0.262,0.2683,0.2807,0.2879,0.3012,0.3118,0.3169,0.3319,0.3425,0.3476,0.3564,0.3516,0.3552,0.3542,0.3306,0.3267,0.3421,0.3407,0.3542,0.3542,0.3541,0.3541,0.354,0,0.2336,0.2365,0.2475,0.2509,0.2561,0.2654,0.2708,0.2851,0.2945,0.3144,0.3206,0.3366,0.342,0.355,0.354,0.3567,0.3582,0.3347,0.321,0.3456,0.3435,0.3422,0.341,0.3001,0.2996,0.2992,0.2989,0,0.2318,0.2355,0.2405,0.248,0.2537,0.2596,0.2716,0.2763,0.2936,0.3033,0.3174,0.324,0.3384,0.332,0.338,0.3348,0.3323,0.3268,0.3602,0.3,0.2954,0.293,0.2934,0.2954,0.2958,0.296,0.2962,0.2964,0.2299,0.2333,0.2402,0.2446,0.2514,0.256,0.2557,0.267,0.2759,0.2851,0.3011,0.3025,0.3095,0.3067,0.3002,0.298,0.3185,0.3034,0.3042,0.3056,0.2956,0.291,0.2886,0.2889,0.2891,0.2894,0.2896,0,0.229,0.2327,0.2375,0.2431,0.2442,0.2512,0.2574,0.2514,0.2534,0.2661,0.2721,0.2537,0.2541,0.2614,0.2543,0.2563,0.2498,0.2451,0.2339,0.238,0.2414,0.2275,0.2028,0.2025,0.2021,0.2018,0,0,0.2289,0.2308,0.2323,0.2327,0.237,0.234,0.2327,0.2233,0.2279,0.2219,0.224,0.2408,0.2561,0.2241,0.2235,0.2123,0.222,0.2047,0.276,0.2673,0.2702,0.2791,0.2629,0,0,0,0,0]},{"header":{"parameterUnit":"m.s-1","parameterCategory":2,"la1":30.2991,"la2":30.254,"lo1":-89.0895,"lo2":-89.0444,"dy":0.0017,"dx":0.0017,"nx":28,"ny":28,"refTime":"2024-05-21T03:00:00:Z","depth":"2","parameterNumber":3,"parameterNumberName":"V-component_of_CURRENTS"},"data":[0,0,0,0,0,0,0,0,0,0,0,0,0,0,0,0,0,0,0,0,0,0,0,0,0,0,0,0,0,0,0,0,0,0,0,0,0,0,0,0,0,0,0,0,0,0,0,0,0,0,0,0,0,0,0,0,0,0,-0.006,-0.006,0,-0.0108,-0.0109,-0.0109,-0.0148,-0.0148,-0.0148,-0.0148,-0.0243,-0.0245,-0.0247,0,0,0,0,0,0,0,0,0,0,0,0,0,-0.0034,-0.0034,-0.006,-0.006,-0.0061,-0.0108,-0.0109,-0.0109,-0.0147,-0.0148,-0.0148,-0.0149,-0.0242,-0.0244,-0.0247,0,0,0,0,0,0,0,0,0,0,0,0,0,-0.006,-0.0034,-0.006,-0.0085,-0.0088,-0.0108,-0.0109,-0.011,-0.0147,-0.0148,-0.0148,-0.0149,-0.0241,-0.0244,-0.0247,-0.0258,0,0,-0.0258,-0.0259,0,0,0,0,0,0,0,0,-0.0059,-0.0061,-0.0081,-0.0083,-0.0086,-0.0122,-0.0134,-0.0161,-0.0147,-0.0126,-0.0148,-0.0149,-0.0206,-0.0212,-0.022,-0.0263,-0.0267,-0.0258,-0.026,-0.0261,-0.0262,0,0,0,0,0,0,0,-0.0057,-0.006,-0.008,-0.0081,-0.0085,-0.0105,-0.0109,-0.0139,-0.0164,-0.0127,-0.013,-0.0134,-0.0208,-0.0217,-0.0223,-0.0268,-0.0258,-0.0261,-0.0263,-0.0264,-0.0332,-0.0332,0,0,0,0,0,0,-0.0047,-0.0058,-0.0078,-0.0081,-0.0073,-0.0105,-0.011,-0.011,-0.0163,-0.017,-0.0134,-0.0136,-0.0211,-0.0219,-0.0226,-0.0238,-0.0261,-0.0264,-0.0266,-0.0332,-0.0332,-0.0332,0,0,0,0,0,0,-0.0046,-0.0048,-0.0076,-0.007,-0.0075,-0.0105,-0.0105,-0.0111,-0.012,-0.0167,-0.0176,-0.0136,-0.0212,-0.0222,-0.0248,-0.0242,-0.0266,-0.0269,-0.0333,-0.0332,-0.0332,-0.0265,0,0,0,0,0,0,-0.0045,-0.0048,-0.0044,-0.0069,-0.0075,-0.0081,-0.0105,-0.0112,-0.0121,-0.0125,-0.0172,-0.0181,-0.0213,-0.0243,-0.0251,-0.0247,-0.0272,-0.0333,-0.0333,-0.0332,-0.0267,-0.0262,-0.0258,0,0,0,0,0,-0.0044,-0.0032,-0.0043,-0.0046,-0.0069,-0.008,-0.0084,-0.0108,-0.0121,-0.0119,-0.0152,-0.018,-0.0247,-0.0245,-0.0255,-0.0252,-0.0333,-0.0333,-0.0332,-0.0269,-0.0263,-0.0258,0,0,0,0,0,0,-0.0017,-0.0036,-0.0049,-0.0043,-0.0058,-0.0086,-0.0085,-0.0103,-0.0127,-0.013,-0.0177,-0.0188,-0.0209,-0.024,-0.0237,-0.0271,-0.0295,-0.0297,-0.0244,-0.0238,-0.0234,-0.021,-0.0274,0,0,0,0,0,-0.0009,-0.0007,-0.003,-0.0025,-0.003,-0.0057,-0.0065,-0.008,-0.0104,-0.0115,-0.0147,-0.0184,-0.0215,-0.0233,-0.0263,-0.0282,-0.031,-0.0288,-0.0283,-0.0279,-0.0267,-0.0305,-0.0302,-0.0331,-0.0331,-0.0331,0,0,0.0002,-0.0008,-0.0007,-0.002,-0.0033,-0.0028,-0.0063,-0.0067,-0.0064,-0.0122,-0.0128,-0.0167,-0.0215,-0.0234,-0.0247,-0.026,-0.0285,-0.0278,-0.0274,-0.0264,-0.0304,-0.0301,-0.0299,-0.033,-0.0331,-0.0331,0,0,0.0032,0.0019,0.0032,0.0025,0.0011,-0.0004,-0.0003,-0.0026,-0.0039,-0.0052,-0.0093,-0.0126,-0.017,-0.0203,-0.0227,-0.0216,-0.0257,-0.0228,-0.0188,-0.0225,-0.0222,-0.0221,-0.0249,-0.0251,-0.0228,-0.0228,-0.0228,0,0.0047,0.006,0.0035,0.0048,0.0051,0.0012,0.0032,0.0014,-0.0015,-0.002,-0.0044,-0.0109,-0.0155,-0.0179,-0.0178,-0.0205,-0.0228,-0.0203,-0.0217,-0.0216,-0.0216,-0.0246,-0.0248,-0.0225,-0.0225,-0.0225,-0.0226,0,0.0086,0.0098,0.0107,0.0111,0.0111,0.0121,0.0098,0.0093,0.0071,0.0049,0.0022,-0.0043,-0.0078,-0.0105,-0.014,-0.0158,-0.0176,-0.0204,-0.0227,-0.0209,-0.0242,-0.0245,-0.022,-0.0221,-0.0222,-0.0223,0,0,0.0119,0.0133,0.0137,0.0156,0.0148,0.0156,0.0162,0.0159,0.0172,0.0121,0.0131,0.0054,0.0018,-0.0011,-0.0066,-0.0107,-0.0132,-0.0147,-0.0151,-0.0167,-0.0204,-0.0233,-0.024,-0.0161,-0.0161,-0.0161,-0.0227,0,0.0158,0.0203,0.0196,0.0241,0.0265,0.0242,0.0259,0.0249,0.0227,0.0225,0.0148,0.0132,0.0054,0.004,-0.0014,-0.0096,-0.0138,-0.0111,-0.0227,-0.023,-0.0252,-0.0245,-0.0204,-0.0261,-0.0231,-0.0232,-0.0232,0,0.0203,0.0227,0.0282,0.0319,0.0328,0.0351,0.0377,0.0387,0.0365,0.0349,0.0307,0.0249,0.0184,0.0118,-0.0019,0.0004,-0.0089,-0.0163,-0.0168,-0.0219,-0.0266,-0.0277,-0.027,-0.0239,-0.0239,-0.0238,-0.0238,0,0.0249,0.0291,0.0341,0.0352,0.0383,0.0411,0.0431,0.043,0.0462,0.0435,0.0454,0.0349,0.0321,0.0183,0.0019,0.0004,-0.0128,-0.0171,-0.0286,-0.0289,-0.0289,-0.0292,-0.0263,-0.0263,-0.0263,-0.0263,-0.0262,0,0.0297,0.0337,0.0372,0.0399,0.0471,0.0475,0.0548,0.0547,0.0578,0.0628,0.053,0.054,0.0337,0.0231,0.0064,-0.0117,-0.0098,-0.0272,-0.0308,-0.0266,-0.0265,-0.0275,-0.0276,-0.0265,-0.0264,-0.0264,-0.0264,0,0.0342,0.0359,0.0425,0.0475,0.0497,0.0556,0.0643,0.0697,0.0711,0.0778,0.078,0.0695,0.0546,0.0336,0.0115,-0.0041,-0.0224,-0.0294,-0.0228,-0.0255,-0.0372,-0.0368,-0.0427,-0.0429,-0.043,-0.0431,-0.0432,0,0.037,0.0407,0.0487,0.0542,0.0573,0.0657,0.0721,0.0761,0.0845,0.0871,0.0928,0.0803,0.0721,0.0392,0.0095,-0.0196,-0.0235,-0.0342,-0.0376,-0.0359,-0.0388,-0.0382,-0.0377,-0.0349,-0.0349,-0.0349,-0.0349,0,0.0421,0.0452,0.0501,0.0612,0.0693,0.0795,0.0906,0.098,0.1036,0.1088,0.1118,0.1042,0.0741,0.045,0.0061,-0.0135,-0.0298,-0.0356,-0.0349,-0.0316,-0.0292,-0.0318,-0.0314,-0.0351,-0.0351,-0.035,-0.035,-0.035,0.0458,0.0514,0.0582,0.0683,0.0792,0.0923,0.0982,0.1113,0.1216,0.1282,0.1233,0.1153,0.0836,0.0339,0.0008,-0.0319,-0.032,-0.043,-0.0427,-0.0424,-0.0405,-0.0386,-0.0458,-0.0458,-0.0459,-0.0459,-0.0459,0,0.0505,0.0566,0.0656,0.0768,0.0869,0.0933,0.1099,0.1141,0.1249,0.1358,0.1359,0.1058,0.0747,0.0405,-0.0076,-0.0388,-0.0406,-0.048,-0.0423,-0.0419,-0.0417,-0.0396,-0.0447,-0.0448,-0.0449,-0.045,0,0,0.0533,0.061,0.0651,0.0795,0.0886,0.1013,0.1094,0.1172,0.1285,0.1338,0.1361,0.1272,0.0879,0.0531,0.011,-0.0153,-0.0216,-0.0214,-0.019,-0.007,-0.0063,-0.0357,-0.0317,0,0,0,0,0]}],[{"header":{"parameterUnit":"m.s-1","parameterCategory":2,"la1":30.2991,"la2":30.254,"lo1":-89.0895,"lo2":-89.0444,"dy":0.0017,"dx":0.0017,"nx":28,"ny":28,"refTime":"2024-05-21T03:00:00:Z","depth":"4","parameterNumber":2,"parameterNumberName":"U-component_of_CURRENTS"},"data":[0,0,0,0,0,0,0,0,0,0,0,0,0,0,0,0,0,0,0,0,0,0,0,0,0,0,0,0,0,0,0,0,0,0,0,0,0,0,0,0,0,0,0,0,0,0,0,0,0,0,0,0,0,0,0,0,0,0,0.1505,0.1506,0,0.1577,0.1578,0.1578,0.1637,0.1638,0.1639,0.164,0.1728,0.1729,0.1731,0,0,0,0,0,0,0,0,0,0,0,0,0,0.1418,0.1419,0.1505,0.1506,0.1507,0.1577,0.1578,0.1579,0.1637,0.1638,0.1639,0.164,0.1727,0.1729,0.1731,0,0,0,0,0,0,0,0,0,0,0,0,0,0.1466,0.1419,0.1505,0.1547,0.1552,0.1577,0.1578,0.1579,0.1637,0.1638,0.164,0.1641,0.1727,0.1729,0.1731,0.1718,0,0,0.1738,0.1739,0,0,0,0,0,0,0,0,0.1463,0.1469,0.154,0.1544,0.155,0.1602,0.158,0.1627,0.1637,0.1601,0.164,0.1642,0.1688,0.1694,0.17,0.1722,0.1726,0.1738,0.174,0.1741,0.1741,0,0,0,0,0,0,0,0.146,0.1466,0.153,0.1541,0.1547,0.1563,0.1571,0.1589,0.1634,0.1605,0.161,0.1622,0.1691,0.1697,0.1702,0.1727,0.1738,0.174,0.1742,0.1742,0.1858,0.186,0,0,0,0,0,0,0.1456,0.1463,0.1528,0.1533,0.1513,0.1564,0.1573,0.1582,0.1634,0.1644,0.1621,0.1625,0.1693,0.17,0.1706,0.1795,0.1741,0.1743,0.1744,0.1857,0.1859,0.1861,0,0,0,0,0,0,0.1454,0.1461,0.1525,0.1502,0.1512,0.1564,0.1574,0.1582,0.1624,0.1647,0.1657,0.1658,0.1694,0.1703,0.1757,0.1795,0.1744,0.1746,0.1855,0.1857,0.186,0.1909,0,0,0,0,0,0,0.1451,0.1459,0.1476,0.1502,0.1513,0.1561,0.1573,0.1583,0.1629,0.1636,0.1681,0.1689,0.1696,0.1754,0.1759,0.1798,0.1747,0.1852,0.1856,0.1859,0.1906,0.1913,0.192,0,0,0,0,0,0.1447,0.1459,0.1476,0.1485,0.153,0.1563,0.157,0.1609,0.163,0.1651,0.1689,0.1689,0.1778,0.1757,0.1763,0.1803,0.1851,0.1855,0.1859,0.1902,0.1912,0.192,0,0,0,0,0,0,0.1433,0.1467,0.1486,0.1509,0.1545,0.1574,0.16,0.1626,0.167,0.1687,0.1707,0.1718,0.178,0.1784,0.176,0.1847,0.1816,0.1821,0.1847,0.1856,0.1864,0.1856,0.1749,0,0,0,0,0,0.1435,0.1455,0.1491,0.1515,0.1533,0.1572,0.1596,0.1625,0.1662,0.1685,0.172,0.1758,0.1793,0.182,0.1846,0.1891,0.1903,0.1922,0.193,0.1936,0.1935,0.1996,0.2008,0.1873,0.1873,0.1873,0,0,0.1439,0.1461,0.1475,0.1514,0.1544,0.1572,0.159,0.1636,0.167,0.1686,0.1752,0.1785,0.1811,0.1865,0.1893,0.1879,0.1982,0.1941,0.1946,0.1942,0.2001,0.2014,0.2026,0.1876,0.1875,0.1875,0,0,0.1443,0.1475,0.149,0.1519,0.157,0.1594,0.1614,0.1665,0.1703,0.1759,0.1787,0.1845,0.1894,0.1927,0.1946,0.2008,0.2017,0.2024,0.2058,0.2118,0.2129,0.2139,0.2175,0.2188,0.203,0.203,0.203,0,0.1451,0.1468,0.1502,0.1523,0.1554,0.1606,0.1634,0.1673,0.1741,0.178,0.179,0.1897,0.1921,0.1992,0.2017,0.2025,0.2053,0.2022,0.2127,0.2137,0.2147,0.2181,0.2195,0.2033,0.2032,0.2032,0.2032,0,0.1453,0.1483,0.1497,0.1541,0.1579,0.1613,0.167,0.1725,0.1778,0.182,0.1915,0.1958,0.2025,0.2045,0.2049,0.2137,0.2133,0.2127,0.2102,0.2163,0.2195,0.2209,0.2037,0.2036,0.2035,0.2034,0,0,0.1428,0.1487,0.1495,0.1526,0.1593,0.1626,0.1692,0.1766,0.1832,0.1898,0.1983,0.2047,0.2091,0.2115,0.2145,0.2193,0.2285,0.2193,0.2195,0.2223,0.2412,0.2257,0.2256,0.2306,0.2309,0.2311,0.2407,0,0.1424,0.1462,0.1497,0.1554,0.1582,0.1654,0.1716,0.1796,0.1875,0.1971,0.2035,0.2126,0.2113,0.2172,0.2216,0.2277,0.2322,0.2258,0.2352,0.2354,0.2205,0.2267,0.2319,0.2417,0.242,0.2423,0.2424,0,0.1408,0.1439,0.1482,0.1574,0.1597,0.1647,0.1772,0.184,0.1972,0.204,0.2135,0.2193,0.2291,0.2271,0.2387,0.2353,0.2385,0.2413,0.2418,0.2261,0.2223,0.2344,0.2448,0.2446,0.2444,0.2443,0.2441,0,0.1363,0.1435,0.1472,0.1498,0.16,0.1657,0.1738,0.1868,0.1942,0.2107,0.218,0.229,0.2375,0.243,0.248,0.2458,0.2592,0.2569,0.2453,0.2443,0.2531,0.2519,0.2644,0.2644,0.2644,0.2644,0.2644,0,0.1328,0.1369,0.1463,0.1481,0.1565,0.1653,0.1765,0.1868,0.2008,0.2098,0.2225,0.2301,0.2424,0.2502,0.2524,0.2522,0.2631,0.2464,0.2461,0.255,0.2539,0.2541,0.2527,0.2647,0.2647,0.2646,0.2645,0,0.1269,0.1324,0.138,0.1492,0.1542,0.1611,0.1775,0.1849,0.2001,0.2125,0.2183,0.2345,0.2448,0.253,0.2639,0.257,0.2593,0.2565,0.2657,0.2657,0.2395,0.2383,0.2446,0.2441,0.2437,0.2434,0.2431,0,0.1238,0.125,0.1376,0.1423,0.1481,0.1597,0.1674,0.1835,0.191,0.2121,0.2164,0.2325,0.2411,0.244,0.2534,0.2571,0.2539,0.2533,0.2447,0.2385,0.2377,0.2371,0.2365,0.2425,0.2424,0.2423,0.2422,0,0.117,0.1222,0.127,0.1364,0.1448,0.1531,0.1658,0.169,0.1866,0.2015,0.2102,0.2165,0.2277,0.2348,0.2399,0.2413,0.2526,0.2492,0.2499,0.2418,0.2361,0.2355,0.2354,0.2408,0.241,0.2412,0.2412,0,0.1125,0.1151,0.1219,0.1293,0.1389,0.1435,0.1513,0.1599,0.1686,0.1905,0.1927,0.2097,0.2249,0.2268,0.2309,0.2318,0.2281,0.2204,0.2225,0.2241,0.2127,0.2022,0.1969,0,0,0,0,0,0.1076,0.1098,0.1151,0.1216,0.1297,0.1352,0.1485,0.1557,0.1714,0.1728,0.1821,0.1912,0.1991,0.2082,0.2052,0.2215,0.2283,0.2169,0.2203,0.2334,0.2349,0.2233,0,0,0,0,0,0,0.1051,0.1095,0.1114,0.1123,0.1149,0.1223,0.1295,0.1401,0.1423,0.1595,0.1654,0.1793,0.1903,0.1984,0.2012,0.2038,0.2021,0.2277,0.2272,0.2325,0.2339,0.2351,0.2237,0,0,0,0,0]},{"header":{"parameterUnit":"m.s-1","parameterCategory":2,"la1":30.2991,"la2":30.254,"lo1":-89.0895,"lo2":-89.0444,"dy":0.0017,"dx":0.0017,"nx":28,"ny":28,"refTime":"2024-05-21T03:00:00:Z","depth":"4","parameterNumber":3,"parameterNumberName":"V-component_of_CURRENTS"},"data":[0,0,0,0,0,0,0,0,0,0,0,0,0,0,0,0,0,0,0,0,0,0,0,0,0,0,0,0,0,0,0,0,0,0,0,0,0,0,0,0,0,0,0,0,0,0,0,0,0,0,0,0,0,0,0,0,0,0,-0.0045,-0.0045,0,-0.0077,-0.0077,-0.0078,-0.0108,-0.0108,-0.0108,-0.0109,-0.018,-0.0182,-0.0184,0,0,0,0,0,0,0,0,0,0,0,0,0,-0.0036,-0.0036,-0.0045,-0.0045,-0.0046,-0.0077,-0.0077,-0.0078,-0.0108,-0.0108,-0.0108,-0.0109,-0.018,-0.0182,-0.0184,0,0,0,0,0,0,0,0,0,0,0,0,0,-0.0051,-0.0035,-0.0045,-0.0064,-0.0066,-0.0077,-0.0077,-0.0078,-0.0108,-0.0108,-0.0109,-0.0109,-0.0179,-0.0182,-0.0184,-0.0189,0,0,-0.0191,-0.0192,0,0,0,0,0,0,0,0,-0.005,-0.0052,-0.0061,-0.0063,-0.0065,-0.0088,-0.01,-0.0117,-0.0108,-0.0092,-0.0109,-0.0109,-0.0153,-0.0157,-0.0162,-0.0193,-0.0196,-0.0192,-0.0193,-0.0194,-0.0195,0,0,0,0,0,0,0,-0.0049,-0.0051,-0.0058,-0.0061,-0.0064,-0.008,-0.0082,-0.0104,-0.0121,-0.0094,-0.0096,-0.0098,-0.0154,-0.016,-0.0164,-0.0197,-0.0192,-0.0194,-0.0195,-0.0196,-0.0244,-0.0244,0,0,0,0,0,0,-0.0042,-0.0049,-0.0057,-0.0059,-0.0058,-0.0079,-0.0082,-0.0081,-0.012,-0.0125,-0.0098,-0.01,-0.0156,-0.0162,-0.0167,-0.017,-0.0194,-0.0196,-0.0198,-0.0245,-0.0244,-0.0244,0,0,0,0,0,0,-0.0042,-0.0042,-0.0056,-0.0055,-0.0058,-0.0079,-0.0077,-0.0081,-0.0089,-0.0122,-0.0129,-0.0101,-0.0156,-0.0164,-0.0183,-0.0174,-0.0197,-0.02,-0.0245,-0.0244,-0.0244,-0.018,0,0,0,0,0,0,-0.0041,-0.0042,-0.004,-0.0054,-0.0057,-0.0056,-0.0077,-0.0081,-0.0089,-0.0092,-0.0127,-0.0134,-0.0157,-0.0179,-0.0185,-0.0177,-0.0202,-0.0245,-0.0245,-0.0244,-0.0183,-0.0178,-0.0174,0,0,0,0,0,-0.0041,-0.003,-0.0039,-0.0041,-0.0053,-0.0055,-0.0058,-0.0076,-0.0089,-0.0086,-0.0111,-0.0133,-0.0181,-0.018,-0.0188,-0.0181,-0.0245,-0.0245,-0.0244,-0.0184,-0.0179,-0.0174,0,0,0,0,0,0,-0.0024,-0.0033,-0.0043,-0.0036,-0.0044,-0.006,-0.0059,-0.0073,-0.009,-0.0095,-0.013,-0.0138,-0.0151,-0.0176,-0.0174,-0.0195,-0.0218,-0.0219,-0.017,-0.0165,-0.016,-0.0141,-0.0204,0,0,0,0,0,-0.0019,-0.0015,-0.0027,-0.0022,-0.0024,-0.0042,-0.0047,-0.0058,-0.0074,-0.0082,-0.0107,-0.0135,-0.0155,-0.0167,-0.019,-0.02,-0.0233,-0.0202,-0.0198,-0.0194,-0.0184,-0.0228,-0.0226,-0.0243,-0.0243,-0.0243,0,0,-0.0011,-0.0016,-0.0014,-0.0018,-0.0027,-0.0016,-0.0046,-0.0047,-0.0039,-0.0088,-0.0087,-0.012,-0.0155,-0.0164,-0.0173,-0.0184,-0.0207,-0.0193,-0.0189,-0.0182,-0.0227,-0.0226,-0.0224,-0.0243,-0.0243,-0.0243,0,0,0.0014,0.0003,0.0018,0.0017,0.0009,0.0001,0.0003,-0.0012,-0.002,-0.0026,-0.0058,-0.0083,-0.0114,-0.0134,-0.0149,-0.0135,-0.0182,-0.0148,-0.0109,-0.0152,-0.0151,-0.015,-0.0192,-0.0196,-0.0146,-0.0145,-0.0145,0,0.0022,0.0041,0.0021,0.0038,0.0045,0.0014,0.0036,0.0027,0.0008,0.0003,-0.0018,-0.0067,-0.0097,-0.0109,-0.0102,-0.0124,-0.0159,-0.0124,-0.0145,-0.0145,-0.0146,-0.0189,-0.0194,-0.0142,-0.0143,-0.0143,-0.0143,0,0.0062,0.0076,0.0086,0.0099,0.0103,0.0115,0.0104,0.0102,0.0083,0.0066,0.0044,-0.0001,-0.0031,-0.0046,-0.0068,-0.0083,-0.0111,-0.0134,-0.0155,-0.014,-0.0187,-0.0193,-0.0138,-0.0139,-0.014,-0.0141,0,0,0.0082,0.0109,0.0113,0.0132,0.0137,0.0145,0.0161,0.0163,0.0166,0.0133,0.0131,0.0091,0.0053,0.0033,-0.0008,-0.0042,-0.0075,-0.0083,-0.0086,-0.0118,-0.0174,-0.0174,-0.0182,-0.0106,-0.0106,-0.0107,-0.0206,0,0.0119,0.0168,0.017,0.0216,0.0241,0.0227,0.0244,0.0238,0.0216,0.0203,0.015,0.0127,0.0087,0.0066,0.0028,-0.0052,-0.0088,-0.0046,-0.019,-0.0194,-0.019,-0.0188,-0.0109,-0.0211,-0.0213,-0.0214,-0.0215,0,0.0159,0.0187,0.0242,0.0278,0.0286,0.0307,0.0322,0.0333,0.0306,0.0284,0.0247,0.0196,0.0147,0.0105,-0.0015,0.0011,-0.0069,-0.0134,-0.014,-0.0164,-0.0205,-0.0231,-0.0226,-0.0226,-0.0225,-0.0224,-0.0223,0,0.0186,0.0237,0.0283,0.0297,0.0331,0.035,0.0365,0.0356,0.0363,0.0332,0.0316,0.0246,0.0201,0.0102,-0.0028,-0.0027,-0.017,-0.019,-0.0266,-0.0268,-0.0266,-0.0265,-0.0272,-0.0272,-0.0272,-0.0271,-0.0271,0,0.0223,0.026,0.03,0.0325,0.0376,0.0386,0.0422,0.0423,0.0416,0.0421,0.0357,0.033,0.0197,0.0097,-0.0016,-0.0159,-0.0166,-0.0255,-0.029,-0.0238,-0.0233,-0.0271,-0.0269,-0.0275,-0.0274,-0.0274,-0.0273,0,0.0243,0.0271,0.0326,0.0373,0.0392,0.0426,0.0467,0.0479,0.0473,0.0476,0.0467,0.0381,0.0256,0.0114,-0.0059,-0.0145,-0.028,-0.0331,-0.0262,-0.0293,-0.0353,-0.0347,-0.042,-0.0421,-0.0421,-0.0422,-0.0422,0,0.0257,0.0287,0.0357,0.0387,0.041,0.0461,0.0487,0.0506,0.0518,0.0503,0.0497,0.0392,0.0318,0.0087,-0.0071,-0.0284,-0.0314,-0.0383,-0.0361,-0.034,-0.0367,-0.036,-0.0354,-0.0423,-0.0424,-0.0424,-0.0424,0,0.0271,0.0295,0.0333,0.0399,0.044,0.0496,0.0537,0.0553,0.0569,0.0564,0.0531,0.042,0.0275,0.0097,-0.0071,-0.0225,-0.0334,-0.0391,-0.039,-0.037,-0.0345,-0.037,-0.0363,-0.0426,-0.0426,-0.0426,-0.0425,0,0.0266,0.0293,0.0337,0.0397,0.0451,0.0507,0.054,0.0561,0.0582,0.0576,0.0562,0.0425,0.0348,0.0125,-0.0033,-0.018,-0.0217,-0.0256,-0.0263,-0.0263,-0.0186,-0.013,-0.017,0,0,0,0,0,0.0255,0.0281,0.033,0.0394,0.045,0.0495,0.0553,0.0579,0.06,0.0592,0.0588,0.0465,0.0252,0.0151,0.0006,-0.0076,-0.0268,-0.0254,-0.0323,-0.0439,-0.0436,-0.0373,0,0,0,0,0,0,0.024,0.028,0.0316,0.0375,0.0425,0.049,0.0538,0.0565,0.0566,0.0576,0.0467,0.0432,0.0216,0.0341,0.0005,-0.0043,-0.0106,-0.0352,-0.0355,-0.044,-0.0438,-0.0436,-0.037,0,0,0,0,0]}]]